Location: Newark
(35.8967°N, 14.4625°E)
Time: 13:06:52
(UTC+00:00)

Hubble Space Telescope - Visible Passes

Search period start: 25 March 2019 00:00
Search period end: 04 April 2019 00:00
Orbit: 537 x 540 km, 28.5° (Epoch: 24 March)

Date Brightness Start Highest point End Pass type
(mag) Time Alt. Az. Time Alt. Az. Time Alt. Az.
25 Mar 2.3 18:28:35 10° SW 18:31:39 20° SSE 18:32:24 19° SSE visible
26 Mar 2.3 18:17:49 10° SW 18:21:05 22° SSE 18:22:42 18° SE visible
27 Mar 2.2 18:07:08 10° SW 18:10:31 25° S 18:12:57 15° SE visible
27 Mar 3.5 19:47:41 10° WSW 19:48:18 13° WSW 19:48:18 13° WSW visible
28 Mar 2.1 17:56:28 10° SW 17:59:58 26° S 18:03:09 12° ESE visible
28 Mar 3.1 19:37:12 10° WSW 19:38:30 17° SW 19:38:30 17° SW visible
29 Mar 2.1 17:45:51 10° SW 17:49:25 28° S 17:52:58 10° ESE visible
29 Mar 2.8 19:26:44 10° WSW 19:28:40 20° SW 19:28:40 20° SW visible
30 Mar 2.6 19:16:18 10° WSW 19:18:49 22° SSW 19:18:49 22° SSW visible
31 Mar 2.5 19:05:55 10° WSW 19:08:58 21° SSW 19:08:58 21° SSW visible
01 Apr 2.6 18:55:35 10° WSW 18:58:27 18° SSW 18:59:07 17° S visible
02 Apr 2.9 18:45:22 10° SW 18:47:52 16° SSW 18:49:17 13° S visible
03 Apr 3.2 18:35:18 10° SW 18:37:16 13° SSW 18:39:14 10° S visible
